Location: Nebula Knoll Observatory
(43.6666°N, 71.0000°W)
Time: 05:44:17
(UTC-04:00)

Daily predictions for brighter satellites

Satellite Brightness Start Highest point End
(mag) Time Altitude Azimuth Time Altitude Azimuth Time Altitude Azimuth
Cosmos 1544 Rocket 3.9 00:06:24 60° NNE 00:06:24 60° NNE 00:09:58 10° N
Cosmos 1315 Rocket 3.7 00:07:03 46° N 00:07:03 46° N 00:09:53 10° N
Cosmos 2082 Rocket 4.2 00:04:48 10° WNW 00:07:56 15° W 00:08:58 14° WSW
Meteor 2-4 Rocket 3.7 00:04:12 10° NNW 00:09:35 67° W 00:09:56 65° WSW
Lacrosse 5 rocket 2.9 00:13:04 26° NE 00:13:04 26° NE 00:14:51 10° NE
Cosmos 1447 Rocket 4.4 00:07:55 10° N 00:14:04 70° E 00:14:54 62° SE
Meteor 2-15 Rocket 4.4 00:09:33 10° NNW 00:15:41 73° W 00:16:28 64° SW
Cosmos 1992 Rocket 4.3 00:16:34 55° ENE 00:16:34 55° ENE 00:21:08 10° NNE
GP-B 4.3 00:14:40 10° NNE 00:18:02 34° ENE 00:18:02 34° ENE
Cosmos 2263 4.2 00:19:34 66° E 00:19:34 66° E 00:25:00 10° NNE
Genesis I 4.3 00:23:43 44° NNW 00:23:43 44° NNW 00:26:58 10° NNE
Helios 1A Rocket 4.3 00:19:14 10° NNE 00:21:52 31° NE 00:21:52 31° NE
Landsat 5 4.0 00:27:15 59° N 00:27:15 59° N 00:30:44 10° NNW
Cosmos 2100 Rocket 4.3 00:26:30 51° ESE 00:27:12 53° E 00:33:22 10° NNE
Cosmos 1346 Rocket 3.9 00:27:41 10° N 00:30:21 41° N 00:30:21 41° N
H-2A R/B 3.0 00:34:30 10° N 00:38:33 62° NW 00:38:33 62° NW
Cosmos 2061 Rocket 4.2 00:38:48 56° ESE 00:39:34 61° E 00:45:53 10° NNE
Cosmos 1833 4.2 00:34:27 10° NNW 00:40:04 68° ENE 00:40:36 64° E
Cosmos 1459 Rocket 3.9 00:45:57 65° SE 00:46:31 69° E 00:52:33 10° NNE
Cosmos 2016 Rocket 4.3 00:46:43 48° ESE 00:47:18 50° E 00:53:09 10° NNE
ISS -0.6 00:45:33 10° NW 00:48:02 20° N 00:50:30 10° NE
Cosmos 1802 Rocket 4.0 00:51:42 61° SE 00:52:21 66° E 00:58:35 10° NNE
Cosmos 1975 3.8 00:57:03 45° N 00:57:03 45° N 00:59:58 10° N
Cosmos 2369 Rocket 3.0 00:57:32 39° W 00:58:50 45° WNW 01:04:14 10° NNE
MOS 1-B Rocket 4.1 00:58:33 58° SW 00:59:08 61° W 01:05:49 10° NNW
SL-8 R/B 4.3 00:55:32 10° WNW 00:59:10 51° NW 00:59:10 51° NW
CZ-4B R/B 4.2 01:04:48 13° NW 01:04:48 13° NW 01:05:15 10° NW
CZ-2C R/B 3.0 01:04:53 76° ENE 01:04:53 76° ENE 01:09:42 10° N
Cosmos 1743 4.3 01:06:08 31° NE 01:06:08 31° NE 01:08:31 10° NNE
Cosmos 1602 Rocket 4.5 01:00:44 10° NNW 01:04:07 42° NW 01:04:07 42° NW
SeaSat 1 3.6 01:04:25 30° E 01:05:53 37° NE 01:10:24 10° NNW
Cosmos 2173 Rocket 3.8 01:05:19 70° SSW 01:06:07 87° W 01:12:31 10° N
Cosmos 2219 3.5 01:01:59 10° NNW 01:07:34 59° ENE 01:08:34 51° ESE
ALOS 2 4.5 01:10:19 21° WNW 01:10:19 21° WNW 01:12:47 10° NW
Cosmos 1066 Rocket 4.0 01:04:37 10° N 01:10:01 86° E 01:10:04 86° ESE
CZ-2C R/B 2.5 01:05:18 10° N 01:10:33 80° WNW 01:10:38 79° W
Cosmos 2227 Rocket 4.4 01:07:08 10° N 01:11:24 21° NE 01:15:39 10° E
Lacrosse 5 3.0 01:09:48 28° W 01:11:52 40° NNW 01:16:41 10° NE
NOSS 3-3 (A) 4.3 01:20:54 50° SE 01:21:13 50° ESE 01:27:36 10° NE
NOSS 3-3 (C) 4.3 01:20:59 49° SE 01:21:18 50° ESE 01:27:41 10° NE
Cosmos 1725 Rocket 4.1 01:21:55 57° SE 01:22:48 63° E 01:28:54 10° NNE
Cosmos 968 Rocket 3.5 01:18:14 10° NNW 01:23:08 71° WNW 01:23:08 71° WNW
Cosmos 44 Rocket 3.4 01:25:05 10° NW 01:29:43 72° NW 01:29:43 72° NW
Cosmos 1656 Rocket 3.6 01:31:13 72° SE 01:31:29 73° ESE 01:37:06 10° NNE
Tsikada Rocket 4.0 01:26:00 10° N 01:32:19 77° E 01:33:36 58° SSE
Cosmos 2297 Rocket 4.4 01:28:37 10° N 01:32:59 22° NE 01:37:19 10° E
Cosmos 1666 4.1 01:35:35 33° NE 01:35:35 33° NE 01:38:10 10° NNE
Cosmos 1943 Rocket 2.6 01:37:33 46° W 01:38:27 50° WNW 01:43:55 10° NNE
Cosmos 2228 4.1 01:38:53 36° E 01:38:53 36° E 01:42:31 10° NNE
Cosmos 1818 4.2 01:38:10 42° W 01:39:20 48° NW 01:44:39 10° NNE
ATLAS 2AS CENTAUR R/B 3.0 01:33:22 10° NW 01:41:18 61° WSW 01:42:50 52° SSW
Cosmos 2098 Rocket 4.2 01:41:51 57° S 01:43:27 87° E 01:51:04 10° N
Cosmos 1606 Rocket 3.9 01:50:10 60° NNW 01:50:10 60° NNW 01:53:54 10° N
Lacrosse 5 rocket 3.9 01:48:45 10° WNW 01:50:59 16° NNW 01:53:19 10° NNE
PSLV R/B 3.7 01:55:46 10° NNE 02:00:07 73° E 02:00:07 73° E
Cosmos 2208 Rocket 3.8 02:02:20 73° SSE 02:02:44 78° ESE 02:08:00 10° NNE
Cosmos 1777 Rocket 4.2 01:57:49 10° NNW 02:02:36 54° W 02:02:36 54° W
Cosmos 2058 Rocket 3.2 02:08:25 68° NW 02:08:25 68° NW 02:12:36 10° N
Cosmos 44 3.2 02:05:05 10° NW 02:10:19 81° WSW 02:10:31 79° SSW
SL-08 R/B 4.0 02:09:23 38° ESE 02:10:42 49° ENE 02:15:12 10° N
Cosmos 2346 Rocket 4.5 02:06:51 10° N 02:13:10 83° E 02:15:11 46° SSE
Cosmos 972 Rocket 4.1 02:10:11 10° NNW 02:15:06 69° ENE 02:16:31 47° SE
ERS-2 4.1 02:13:16 10° NE 02:16:11 21° E 02:16:22 21° E
GENESIS II 4.3 02:25:12 79° N 02:25:12 79° N 02:29:10 10° NE
ISS -1.3 02:22:14 10° NW 02:25:10 29° NNE 02:28:06 10° E
Cosmos 1464 Rocket 4.4 02:23:38 34° SSE 02:26:13 57° E 02:32:24 10° NNE
BREEZE-M DEB (TANK) 3.1 02:14:57 10° WNW 02:26:54 75° SW 02:28:18 43° SE
Cosmos 2233 Rocket 4.0 02:27:50 49° SW 02:29:23 65° W 02:35:29 10° N
BREEZE-M DEB (TANK) 3.1 02:30:36 35° ENE 02:30:36 35° ENE 02:32:28 10° ENE
Cosmos 1707 4.0 02:27:16 10° N 02:30:57 36° ENE 02:32:03 30° ESE
CZ-2D R/B 4.0 02:31:25 10° NE 02:35:40 22° E 02:39:15 12° SE
NOSS 2-1 (D) 4.1 02:36:41 40° ESE 02:36:45 40° ESE 02:40:50 10° NE
NOSS 2-1 (C) 4.1 02:38:00 40° ESE 02:38:07 40° ESE 02:42:13 10° NE
Cosmos 468 Rocket 4.5 02:39:04 38° SSE 02:40:34 51° ESE 02:45:34 10° NNE
Okean 3 Rocket 4.4 02:37:05 10° N 02:41:21 46° ENE 02:43:15 28° SE
SeaSat 1 3.4 02:44:12 31° W 02:44:12 31° W 02:47:51 10° NW
ATLAS CENTAUR R/B 2.6 02:43:06 35° SSE 02:44:15 40° ESE 02:48:57 10° NE
Cosmos 2082 3.6 02:39:15 10° NNW 02:44:56 90° WSW 02:47:55 29° SSE
Cosmos 1697 Rocket 4.1 02:42:23 21° SE 02:45:01 30° ESE 02:49:53 10° NE
Cosmos 2150 Rocket 3.9 02:45:22 10° NNW 02:50:38 84° ENE 02:53:18 30° SSE
NOSS 2-1 (E) 3.7 02:52:39 50° SSE 02:53:09 54° ESE 02:57:33 10° NE
Cosmos 1980 Rocket 4.1 02:49:34 12° SE 02:53:09 21° E 02:57:18 10° NE
IRS-P3 4.2 02:47:55 10° N 02:53:13 64° WNW 02:54:49 43° SW
Meteor 2-5 Rocket 3.8 02:49:48 10° N 02:55:42 87° WSW 02:58:45 31° S
Cosmos 2227 Rocket 2.1 02:50:22 10° NNW 02:56:02 70° WSW 02:58:37 33° S
Lacrosse 5 4.3 02:52:25 10° NW 02:56:03 19° N 02:59:41 10° NE
Cosmos 1513 Rocket 4.5 02:53:19 33° S 02:56:11 78° E 03:02:15 10° N
Cosmos 972 4.3 02:55:51 10° NNW 03:00:45 89° WSW 03:03:16 30° SSE
Cosmos 1898 Rocket 3.4 02:56:19 10° NNW 03:01:40 78° WSW 03:04:20 31° S
GEOS 3 Rocket 4.1 02:58:45 10° SE 03:03:52 60° NE 03:08:57 10° NNW
NOSS 3-4 (A) 3.9 02:57:19 10° NW 03:04:18 80° NE 03:11:41 10° SE
NOSS 3-4 (C) 3.9 02:57:25 10° NW 03:04:26 80° NE 03:11:52 10° SE
CBERS 1 LM4 rocket 4.3 03:04:42 10° NNE 03:09:29 83° WNW 03:11:16 40° SSW
Cosmos 1891 Rocket 4.4 03:09:49 32° SSW 03:12:50 83° W 03:19:00 10° N
Cosmos 841 Rocket 4.4 03:09:49 21° SSE 03:12:51 42° ESE 03:17:49 10° NNE
Cosmos 220 Rocket 4.1 03:09:08 10° NNW 03:13:22 54° WSW 03:14:06 47° SW
Abrixas 3.7 03:11:56 18° NW 03:13:52 42° NNE 03:16:49 10° E
Geosat 4.0 03:08:53 10° NNE 03:13:55 72° WNW 03:15:57 36° SW
Cosmos 2278 3.9 03:12:02 34° SW 03:14:21 60° WNW 03:20:00 10° NNE
Cosmos 1937 Rocket 3.4 03:09:29 10° NNW 03:14:41 83° WSW 03:18:26 19° SSE
Cosmos 2369 3.8 03:13:13 35° SW 03:15:35 66° WNW 03:21:15 10° NNE
Cosmos 1076 Rocket 4.3 03:11:28 10° N 03:15:42 50° ENE 03:19:12 14° SSE
Cosmos 2297 Rocket 2.1 03:11:55 10° NNW 03:17:32 66° WSW 03:21:33 19° S
Resurs 1-4 Rocket 2.7 03:13:46 10° NNE 03:18:55 52° E 03:22:30 19° S
Cosmos 1763 Rocket 4.0 03:16:50 25° S 03:19:44 55° ESE 03:24:48 10° NNE
AQUA 4.3 03:15:12 10° N 03:19:46 47° WNW 03:21:22 34° WSW
USA 161 1.4 03:21:36 71° WNW 03:21:36 71° WNW 03:24:17 10° NNW
NPP 4.3 03:17:10 10° N 03:22:14 43° WNW 03:24:27 29° WSW
ADEOS 3.6 03:18:14 10° N 03:23:27 70° WNW 03:25:56 32° SSW
Okean O Rocket 3.9 03:21:07 10° NE 03:24:24 20° E 03:27:41 10° SE
Cosmos 405 Rocket 3.4 03:22:21 10° NNW 03:26:09 39° W 03:26:39 37° WSW
Cosmos 2034 Rocket 4.0 03:23:22 28° SSW 03:26:45 68° W 03:32:57 10° N
ARIANE 5 R/B 2.5 03:21:39 10° NNE 03:26:48 81° ESE 03:29:52 25° S
EP 2 4.5 03:29:14 57° SE 03:29:19 58° SE 03:32:08 10° NE
SL-16 R/B 2.5 03:25:02 10° SSE 03:31:13 86° WSW 03:37:26 10° NNW
Lacrosse 5 rocket 4.3 03:30:55 10° N 03:31:34 10° N 03:32:13 10° NNE
Cosmos 1766 3.3 03:30:17 31° S 03:32:05 80° E 03:36:03 10° N
ERS-1 4.5 03:28:07 10° N 03:33:11 70° WNW 03:35:49 28° SSW
Nadezhda 4 Rocket 3.9 03:30:42 10° N 03:36:52 76° W 03:42:21 14° S
SL-16 R/B 4.5 03:33:17 10° SE 03:36:58 18° E 03:40:39 10° ENE
Milstar 3 Cent rocket 3.7 03:36:28 18° S 03:37:37 19° SSE 03:42:25 10° SE
Cosmos 1378 3.1 03:35:02 10° N 03:38:50 86° W 03:41:10 22° S
BREEZE-M DEB (TANK) 3.0 03:38:17 20° WSW 03:41:53 69° NNW 03:44:27 10° ENE
Meteor 1-24 Rocket 3.8 03:36:23 10° NNW 03:42:01 63° W 03:46:45 16° S
Spot 4 Rocket 4.3 03:37:22 10° N 03:42:23 53° WNW 03:45:13 25° SW
Meteor 1-22 Rocket 4.4 03:38:27 22° SSW 03:42:31 77° W 03:48:40 10° N
Cosmos-2242 3.6 03:39:30 15° SSE 03:42:58 54° E 03:47:10 10° NNE
Cosmos 1408 Rocket 3.5 03:38:44 10° N 03:43:08 85° W 03:46:48 15° S
UNKNOWN OBJECT B 3.2 03:40:39 10° NNE 03:44:32 59° E 03:47:13 18° S
Cosmos 1766 Rocket 3.5 03:41:17 10° N 03:45:42 87° W 03:49:41 13° S
ERS-2 3.4 03:46:45 10° N 03:49:58 27° WNW 03:51:13 22° W
Cosmos 1758 3.7 03:49:04 15° S 03:52:17 63° E 03:56:16 10° NNE
IRS-1D 3.5 03:47:55 10° N 03:52:49 64° WNW 03:56:09 21° SSW
OE (NEXTSAT) 4.4 03:53:26 29° WSW 03:55:09 73° SSE 03:58:47 10° ENE
CZ-4B R/B 4.4 03:51:21 10° NNE 03:56:32 39° E 04:01:35 10° SSE
EO 1 Del DPAF 3.3 03:54:44 17° S 03:57:32 57° WSW 04:01:23 10° NNW
Cosmos 1953 2.4 03:54:25 16° S 03:57:36 76° E 04:01:41 10° NNE
SME Rocket 4.5 03:53:44 15° SSW 03:58:14 50° W 04:06:23 10° NNW
MOS 1-B 4.4 03:52:55 10° NNE 03:58:47 89° ESE 04:04:00 13° SSW
GPS 2-04 Rocket1 3.8 03:57:56 23° SSW 03:58:53 25° S 04:02:06 10° ESE
ISS -3.3 03:58:33 10° WNW 04:01:46 56° SW 04:04:57 10° SE
Cosmos 1441 Rocket 3.5 03:58:34 10° NNW 04:02:28 52° W 04:05:35 15° S
EP 1 4.0 04:02:33 33° SSW 04:03:29 84° SE 04:06:09 10° NE
Cosmos 1805 3.3 04:01:09 14° S 04:04:26 81° E 04:08:22 10° N
Cosmos 2227 4.4 03:59:01 10° NNW 04:04:49 81° ENE 04:10:35 10° SSE
Cosmos 1656 4.2 04:03:16 19° SW 04:07:11 47° WNW 04:12:39 10° NNE
Cosmos 2026 Rocket 4.2 04:01:38 10° N 04:08:01 79° E 04:14:17 10° S
Cosmos 1842 Rocket 4.4 04:04:04 10° SSE 04:08:24 51° E 04:12:45 10° NNE
UNK 4.4 04:09:14 15° SSW 04:12:41 36° W 04:17:01 10° NNW
Cosmos 1634 Rocket 4.0 04:07:48 10° SSW 04:14:00 76° W 04:20:21 10° N
CZ-2D R/B 2.5 04:10:43 10° N 04:16:01 52° WNW 04:20:34 14° SW
NOSS 7 (H) 4.4 04:15:21 20° SW 04:17:26 67° NW 04:20:52 10° NNE
Meteor 1-21 Rocket 4.3 04:12:50 10° NNW 04:18:46 79° W 04:24:40 10° S
Cosmos 2195 Rocket 4.4 04:12:48 10° N 04:18:56 77° W 04:25:01 10° S
CZ-2D R/B 3.6 04:17:47 10° N 04:22:06 69° WNW 04:26:27 10° SSW
USA 81 4.1 04:17:00 10° S 04:22:17 87° E 04:27:36 10° N
ATLAS CENTAUR R/B 2.9 04:19:27 13° WSW 04:23:27 34° NW 04:28:00 10° NNE
Cosmos 1092 Rocket 4.4 04:19:53 10° NNW 04:25:46 43° W 04:31:40 10° SSW
In-Cosmos 22 4.2 04:21:19 10° NNW 04:26:27 53° W 04:31:34 10° S
IRS-1C Rocket 4.1 04:22:30 10° NNE 04:27:47 86° WNW 04:33:03 10° SSW
Cosmos 1697 Rocket 3.3 04:24:08 14° SW 04:28:47 43° WNW 04:34:11 10° NNE
RESURS DK-1 2.6 04:25:12 10° NNW 04:29:22 72° ENE 04:33:28 10° SSE
ADEOS II 3.9 04:25:23 10° NE 04:30:00 30° E 04:34:34 10° SSE
UNK 3.6 04:27:57 10° WNW 04:30:46 30° N 04:32:40 10° ENE
CZ-2C R/B 3.7 04:26:36 10° S 04:31:16 68° WSW 04:35:54 10° NNW
Cosmos 1461 2.8 04:30:02 10° NW 04:34:12 89° NE 04:38:11 10° SSE
Cosmos 1544 3.0 04:31:37 10° SSW 04:35:16 70° W 04:38:56 10° N
CZ-4B DEB 4.4 04:29:52 10° NNE 04:35:27 76° ESE 04:40:58 10° S
Cosmos 1980 Rocket 2.4 04:31:22 11° SW 04:36:40 58° WNW 04:42:17 10° NNE
Cosmos 2360 Rocket 4.4 04:33:27 10° SSE 04:37:38 22° E 04:41:50 10° NE
Lacrosse 5 4.4 04:36:47 10° NW 04:40:40 21° NNE 04:44:31 10° ENE
Cosmos 372 Rocket 3.9 04:37:23 10° NNW 04:42:30 76° WSW 04:47:35 10° SSE
Cosmos 1674 2.6 04:41:48 10° NNW 04:45:34 69° W 04:49:17 10° S
ARGOS Delta rocket 4.0 04:40:28 10° N 04:45:40 89° WNW 04:50:33 10° SSW
Cosmos 2322 Rocket 2.4 04:42:11 10° SSW 04:47:45 73° ESE 04:53:22 10° NNE
Cosmos 1125 Rocket 4.0 04:44:55 10° NW 04:49:44 39° WSW 04:54:31 10° S
Abrixas 2.8 04:46:58 10° WNW 04:49:55 45° SSW 04:52:52 10° SE
USA 116 4.3 04:47:56 10° SSE 04:51:01 50° ENE 04:54:22 10° N
Cosmos 1428 Rocket 4.5 04:47:31 10° NNW 04:53:39 73° W 04:59:43 10° S
Cosmos 1500 Rocket 3.9 04:49:34 10° NNW 04:53:47 44° W 04:57:55 10° SSW
Cosmos 2151 3.1 04:49:41 10° N 04:54:02 87° E 04:58:20 10° S
ADEOS Rocket 4.0 04:50:49 10° NNE 04:57:10 56° E 05:04:10 10° S
Resurs 1-4 Rocket 3.5 04:54:24 10° NNW 04:58:23 22° WNW 05:02:22 10° WSW
CZ-4B R/B 2.9 04:55:18 10° N 04:59:13 58° WNW 05:02:56 10° SSW
Cosmos 1470 3.0 04:56:14 10° SSW 05:00:06 54° W 05:04:01 10° N
Okean O Rocket 2.3 04:56:50 10° N 05:00:56 39° WNW 05:05:02 10° SW
